Weather History for Opa Locka, FL

Change the Weather History Date:

Thursday, February 28, 2013

  Actual Average Record
Temperature  
Mean Temperature 66 °F -  
Max Temperature 72 °F 78 °F 88 °F (2003)
Min Temperature 61 °F 59 °F 40 °F (1968)
Cooling Degree Days 2    
Growing Degree Days 16 (Base 50)    
Moisture  
Dew Point 54 °F    
Average Humidity 66    
Maximum Humidity 94    
Minimum Humidity 44    
Precipitation  
Precipitation 0.00 in - - ()
Sea Level Pressure  
Sea Level Pressure 29.97 in    
Wind  
Wind Speed 8 mph (NW)    
Max Wind Speed 15 mph    
Max Gust Speed 22 mph    
Visibility 10 miles    
Events      
Averages and records for this station are not official NWS values.
T = Trace of Precipitation, MM = Missing Value Source: NWS Daily Summary

Daily Weather History Graph

Daily Weather History Graph

Search for Another Location

Airport:

Trip Planner

Search our weather history database for the weather conditions in past years. The results will help you decide how hot, cold, wet, or windy it might be!

Date:

Astronomy

Feb. 28, 2013 Rise Set
Actual Time 6:45 AM EST 6:22 PM EST
Civil Twilight 6:22 AM EST 6:45 PM EST
Nautical Twilight 5:55 AM EST 7:12 PM EST
Astronomical Twilight 5:28 AM EST 7:38 PM EST
Moon 9:21 PM EST 8:16 AM EST
Length of Visible Light 12h 23m
Length of Day
11h 37m
Waning Gibbous, 91% of the Moon is Illuminated
Feb 28
Waning Gibbous
Mar 4
Last Quarter
Mar 11
New
Mar 19
First Quarter
Mar 27
Full

Hourly Weather History & Observations

Time (EST) Temp. Dew Point Humidity Pressure Visibility Wind Dir Wind Speed Gust Speed Precip Events Conditions
12:06 AM 66.2 °F 64.4 °F 94% 29.97 in 10.0 mi NW 6.9 mph - N/A   Overcast
12:35 AM 66.2 °F 64.4 °F 94% 29.97 in 10.0 mi NW 9.2 mph - N/A   Overcast
12:53 AM 66.9 °F 64.0 °F 90% 29.97 in 10.0 mi NW 9.2 mph - N/A   Overcast
1:53 AM 66.0 °F 64.0 °F 93% 29.94 in 10.0 mi West 4.6 mph - N/A   Overcast
2:53 AM 66.0 °F 63.0 °F 90% 29.93 in 10.0 mi NW 6.9 mph - N/A   Overcast
3:53 AM 64.9 °F 62.1 °F 90% 29.94 in 10.0 mi NW 9.2 mph - N/A   Clear
4:53 AM 63.0 °F 57.0 °F 81% 29.96 in 10.0 mi NW 11.5 mph 21.9 mph N/A   Mostly Cloudy
5:53 AM 62.1 °F 53.1 °F 72% 29.97 in 10.0 mi NW 15.0 mph - N/A   Overcast
6:53 AM 61.0 °F 53.1 °F 75% 29.99 in 10.0 mi NNW 11.5 mph - N/A   Mostly Cloudy
7:53 AM 61.0 °F 54.0 °F 78% 29.99 in 10.0 mi NNW 13.8 mph - N/A   Partly Cloudy
8:53 AM 62.6 °F 53.6 °F 72% 30.02 in 10.0 mi NNW 12.7 mph 18.4 mph N/A   Overcast
9:53 AM 64.0 °F 53.1 °F 67% 30.02 in 10.0 mi NNW 10.4 mph - N/A   Overcast
10:53 AM 69.1 °F 52.0 °F 54% 30.03 in 10.0 mi NNW 10.4 mph - N/A   Overcast
11:53 AM 69.1 °F 52.0 °F 54% 30.01 in 10.0 mi Variable 6.9 mph - N/A   Overcast
12:53 PM 72.0 °F 52.0 °F 49% 29.99 in 10.0 mi Variable 5.8 mph - N/A   Partly Cloudy
1:53 PM 71.1 °F 48.0 °F 44% 29.96 in 10.0 mi NW 9.2 mph - N/A   Overcast
2:53 PM 70.0 °F 48.0 °F 46% 29.95 in 10.0 mi NW 8.1 mph - N/A   Overcast
3:53 PM 69.1 °F 48.0 °F 47% 29.94 in 10.0 mi NW 5.8 mph - N/A   Overcast
4:53 PM 69.1 °F 48.9 °F 49% 29.94 in 10.0 mi WNW 4.6 mph - N/A   Mostly Cloudy
5:53 PM 68.0 °F 46.9 °F 47% 29.95 in 10.0 mi WNW 5.8 mph - N/A   Scattered Clouds
6:53 PM 68.0 °F 50.0 °F 52% 29.96 in 10.0 mi WNW 8.1 mph - N/A   Partly Cloudy
7:53 PM 66.9 °F 48.0 °F 51% 29.97 in 10.0 mi West 4.6 mph - N/A   Partly Cloudy
8:53 PM 66.0 °F 46.9 °F 50% 29.97 in 10.0 mi West 3.5 mph - N/A   Scattered Clouds
9:53 PM 64.9 °F 48.0 °F 54% 29.98 in 10.0 mi Calm Calm - N/A   Overcast
10:53 PM 66.9 °F 48.9 °F 52% 29.97 in 10.0 mi West 6.9 mph - N/A   Overcast
11:53 PM 66.9 °F 53.1 °F 61% 29.97 in 10.0 mi WNW 8.1 mph - N/A   Overcast